Epoch 2002 Mar. 27.0 TT = JDT 2452360.5
T 2002 Mar. 25.20326 TT MPC
q 2.3054124 (2000.0) P Q
n 0.12144316 Peri. 35.42237 +0.90732245 -0.40800327
a 4.0385055 Node 347.38429 +0.18908842 +0.61158867
e 0.4291422 Incl. 27.68784 +0.37551503 +0.67785886
P 8.12
星図
光度変化
m1 = 13.5 + 5 logΔ + 7.0 log r(t - 150)
軌道要素は、CBET 1913に掲載されたものです。
星図は StellaNavigator Ver.2.0 for Windows (アストロアーツ編著 / アスキー出版局刊) で作成したものです。
光度グラフはComet for Windowsで作成したものです。
Copyright(C) Seiichi Yoshida (comet@aerith.net). All rights reserved.